GW5221 Weather Reports


Display with metric or nautical units.
time (UTC)temp
F
wind
direction
speed
MPH
gust
MPH
rain 1hr
in
rain 24hr
in
rain mn
in
humidity
%
barometer
mb
20260905140849 89 206 6.0 9.0 0.00 0.00 0.00 72
20260905140349 89 118 5.0 8.0 0.00 0.00 0.00 72
20260905135848 89 337 1.0 3.0 0.00 0.00 0.00 73
20260905135344 89 353 2.0 4.0 0.00 0.00 0.00 73
20260905134839 88 209 4.0 7.0 0.00 0.00 0.00 73
20260905134337 88 5 1.0 10.0 0.00 0.00 0.00 74
20260905133832 88 326 1.0 7.0 0.00 0.00 0.00 75
20260905133328 88 77 2.0 7.0 0.00 0.00 0.00 75
20260905132827 88 312 1.0 7.0 0.00 0.00 0.00 74
20260905132323 88 118 2.0 6.0 0.00 0.00 0.00 74
20260905131822 89 253 4.0 8.0 0.00 0.00 0.00 73
20260905131318 88 187 2.0 4.0 0.00 0.00 0.00 75
20260905130813 88 3 3.0 6.0 0.00 0.00 0.00 76
20260905130312 88 332 3.0 7.0 0.00 0.00 0.00 76
20260905125808 87 92 2.0 8.0 0.00 0.00 0.00 78
20260905125305 86 350 1.0 3.0 0.00 0.00 0.00 81
20260905124759 86 319 0.0 3.0 0.00 0.00 0.00 83
20260905124254 85 47 3.0 8.0 0.00 0.00 0.00 84
20260905123749 84 344 0.0 3.0 0.00 0.00 0.00 87
20260905123246 83 88 1.0 4.0 0.00 0.00 0.00 87
20260905122741 83 192 0.0 4.0 0.00 0.00 0.00 87
20260905122239 83 80 1.0 2.0 0.00 0.00 0.00 86
20260905121735 83 78 3.0 3.0 0.00 0.00 0.00 86
20260905121232 83 336 1.0 7.0 0.00 0.00 0.00 86
20260905120730 83 323 2.0 2.0 0.00 0.00 0.00 87
20260905120225 84 345 1.0 2.0 0.00 0.00 0.00 86
20260905115720 84 345 1.0 2.0 0.00 0.00 0.00 86
20260905115219 84 345 1.0 2.0 0.00 0.00 0.00 86
20260905114714 84 335 1.0 1.0 0.00 0.00 0.00 85
20260905114212 84 3 2.0 4.0 0.00 0.00 0.00 84
20260905113706 84 199 2.0 3.0 0.00 0.00 0.00 83
20260905113202 84 292 1.0 3.0 0.00 0.00 0.00 83
20260905112701 84 305 1.0 4.0 0.00 0.00 0.00 82
20260905112157 83 347 0.0 1.0 0.00 0.00 0.00 83
20260905111657 83 348 0.0 2.0 0.00 0.00 0.00 84
20260905111156 83 53 0.0 3.0 0.00 0.00 0.00 84
20260905110656 83 1 1.0 2.0 0.00 0.00 0.00 84
20260905110151 83 343 2.0 2.0 0.00 0.00 0.00 84
20260905105646 83 58 1.0 2.0 0.00 0.00 0.00 84
20260905105145 83 347 1.0 2.0 0.00 0.00 0.00 85
20260905104640 83 313 0.0 2.0 0.00 0.00 0.00 85
20260905104136 83 30 1.0 4.0 0.00 0.00 0.00 84
20260905103631 83 347 2.0 2.0 0.00 0.00 0.00 84
20260905103127 83 86 2.0 3.0 0.00 0.00 0.00 84
20260905102622 83 51 2.0 3.0 0.00 0.00 0.00 84
20260905102119 83 1 2.0 6.0 0.00 0.00 0.00 84
20260905101617 83 4 1.0 4.0 0.00 0.00 0.00 84
20260905101115 83 164 2.0 3.0 0.00 0.00 0.00 84
20260905100612 83 346 0.0 2.0 0.00 0.00 0.00 84
20260905100107 83 340 1.0 6.0 0.00 0.00 0.00 84
20260905095600 83 8 2.0 6.0 0.00 0.00 0.00 84
20260905095056 83 359 1.0 2.0 0.00 0.00 0.00 84
20260905094552 83 62 2.0 7.0 0.00 0.00 0.00 84
20260905094051 83 344 0.0 3.0 0.00 0.00 0.00 84
20260905093550 83 19 1.0 2.0 0.00 0.00 0.00 84
20260905093047 83 349 1.0 2.0 0.00 0.00 0.00 84
20260905092541 83 332 1.0 1.0 0.00 0.00 0.00 84
20260905092037 83 20 1.0 2.0 0.00 0.00 0.00 83
20260905091531 83 350 0.0 2.0 0.00 0.00 0.00 83
20260905091031 83 332 1.0 2.0 0.00 0.00 0.00 83
20260905090525 83 346 1.0 2.0 0.00 0.00 0.00 84
20260905090020 83 299 2.0 3.0 0.00 0.00 0.00 84
20260905085519 83 346 0.0 3.0 0.00 0.00 0.00 84
20260905085015 83 338 0.0 1.0 0.00 0.00 0.00 84
20260905084515 83 353 1.0 1.0 0.00 0.00 0.00 84
20260905084014 83 250 1.0 3.0 0.00 0.00 0.00 84
20260905083504 83 353 1.0 3.0 0.00 0.00 0.00 84
20260905083001 83 332 0.0 3.0 0.00 0.00 0.00 84
20260905082456 83 201 2.0 2.0 0.00 0.00 0.00 84
20260905081951 83 208 1.0 3.0 0.00 0.00 0.00 84
20260905081446 83 351 0.0 2.0 0.00 0.00 0.00 84
20260905080945 83 94 2.0 2.0 0.00 0.00 0.00 84
20260905080440 83 60 1.0 2.0 0.00 0.00 0.00 84
20260905075939 83 294 2.0 4.0 0.00 0.00 0.00 84
20260905075434 83 328 2.0 3.0 0.00 0.00 0.00 84
20260905074932 83 325 0.0 2.0 0.00 0.00 0.00 84
20260905074428 83 347 0.0 4.0 0.00 0.00 0.00 84
20260905073924 83 101 1.0 6.0 0.00 0.00 0.00 84
20260905073419 83 335 1.0 1.0 0.00 0.00 0.00 84
20260905072914 83 54 1.0 3.0 0.00 0.00 0.00 84
20260905072409 83 321 1.0 3.0 0.00 0.00 0.00 84
20260905071905 83 343 1.0 2.0 0.00 0.00 0.00 84
20260905071401 83 355 2.0 2.0 0.00 0.00 0.00 84
20260905070855 83 23 1.0 2.0 0.00 0.00 0.00 84
20260905070352 83 38 1.0 2.0 0.00 0.00 0.00 84
20260905065851 83 348 1.0 6.0 0.00 0.00 0.00 84
20260905065349 83 337 0.0 3.0 0.00 0.00 0.00 84
20260905064844 83 336 0.0 4.0 0.00 0.00 0.00 84
20260905064340 83 12 0.0 4.0 0.00 0.00 0.00 84
20260905063838 83 338 0.0 3.0 0.00 0.00 0.00 84
20260905063334 83 331 0.0 3.0 0.00 0.00 0.00 84
20260905062830 83 59 1.0 3.0 0.00 0.00 0.00 84
20260905062324 83 5 1.0 3.0 0.00 0.00 0.00 84
20260905061819 83 349 0.0 2.0 0.00 0.00 0.00 83
20260905061314 83 15 1.0 7.0 0.00 0.00 0.00 83 1017.2
20260905060808 83 55 3.0 4.0 0.00 0.00 0.00 83 1017.2
20260905060305 83 343 0.0 4.0 0.00 0.00 0.00 83 1017.2
20260905055804 83 352 2.0 3.0 0.00 0.00 0.00 83 1017.2
20260905055259 83 57 1.0 4.0 0.00 0.00 0.00 83 1017.2
20260905054753 83 327 2.0 4.0 0.00 0.00 0.00 83 1017.2
20260905054250 83 338 0.0 1.0 0.00 0.00 0.00 83 1017.2
20260905053749 83 325 1.0 3.0 0.00 0.00 0.00 83 1017.2
20260905053244 83 32 4.0 4.0 0.00 0.00 0.00 83 1017.2
20260905052744 83 345 1.0 7.0 0.00 0.00 0.00 83 1017.2
20260905052239 83 344 1.0 4.0 0.00 0.00 0.00 83 1017.2
20260905051738 83 328 2.0 8.0 0.00 0.00 0.00 83 1017.2
20260905051236 83 9 2.0 4.0 0.00 0.00 0.00 83
20260905050732 84 342 0.0 2.0 0.00 0.00 0.00 83
20260905050228 83 40 1.0 4.0 0.00 0.00 0.00 83
20260905045728 84 308 2.0 7.0 0.00 0.00 0.00 83
20260905045223 84 46 2.0 6.0 0.00 0.00 0.00 83
20260905044718 84 320 1.0 6.0 0.00 0.00 0.00 84
20260905044213 84 306 2.0 4.0 0.00 0.00 0.00 83
20260905043711 84 325 2.0 6.0 0.00 0.00 0.00 83
20260905043207 84 0 2.0 4.0 0.00 0.00 0.00 83
20260905042706 84 331 3.0 7.0 0.00 0.00 0.00 83
20260905042201 84 324 0.0 4.0 0.00 0.00 0.00 83
20260905041656 84 25 2.0 6.0 0.00 0.00 0.00 83
20260905041151 84 342 1.0 2.0 0.00 0.00 0.00 83
20260905040646 84 297 1.0 2.0 0.00 0.00 0.00 83
20260905040145 84 308 1.0 3.0 0.00 0.00 0.00 83
20260905035640 84 12 1.0 4.0 0.00 0.00 0.00 83
20260905035137 84 7 2.0 6.0 0.00 0.00 0.00 82
20260905034632 84 8 3.0 4.0 0.00 0.00 0.00 82
20260905034132 84 33 1.0 1.0 0.00 0.00 0.00 82
20260905033626 84 347 1.0 8.0 0.00 0.00 0.00 82
20260905033122 84 13 1.0 3.0 0.00 0.00 0.00 82
20260905032621 84 344 2.0 3.0 0.00 0.00 0.00 82
20260905032115 84 133 2.0 4.0 0.00 0.00 0.00 82
20260905031612 84 349 1.0 8.0 0.00 0.00 0.00 82
20260905031111 84 260 2.0 6.0 0.00 0.00 0.00 82
20260905030606 84 141 1.0 3.0 0.00 0.00 0.00 82
20260905030101 84 106 2.0 4.0 0.00 0.00 0.00 82
20260905025556 84 1 2.0 6.0 0.00 0.00 0.00 82
20260905025052 84 328 1.0 4.0 0.00 0.00 0.00 82
20260905024548 84 356 2.0 4.0 0.00 0.00 0.00 82
20260905024044 84 33 0.0 3.0 0.00 0.00 0.00 82
20260905023539 84 343 2.0 4.0 0.00 0.00 0.00 82
20260905023038 84 168 1.0 3.0 0.00 0.00 0.00 81
20260905022538 84 323 0.0 6.0 0.00 0.00 0.00 82
20260905022033 84 72 2.0 6.0 0.00 0.00 0.00 81
20260905021533 84 345 3.0 8.0 0.00 0.00 0.00 81
20260905021028 84 249 3.0 6.0 0.00 0.00 0.00 81
20260905020522 84 316 2.0 4.0 0.00 0.00 0.00 81
20260905020018 84 258 2.0 4.0 0.00 0.00 0.00 81
20260905015516 84 149 2.0 8.0 0.00 0.00 0.00 81
20260905015016 84 356 2.0 4.0 0.00 0.00 0.00 81
20260905014510 84 36 2.0 4.0 0.00 0.00 0.00 81
20260905014006 84 312 1.0 2.0 0.00 0.00 0.00 81
20260905013502 84 71 2.0 4.0 0.00 0.00 0.00 81
20260905012957 84 9 0.0 3.0 0.00 0.00 0.00 81
20260905012452 84 6 2.0 3.0 0.00 0.00 0.00 80
20260905011949 84 338 1.0 6.0 0.00 0.00 0.00 80
20260905011444 84 17 1.0 2.0 0.00 0.00 0.00 80
20260905010940 84 355 0.0 3.0 0.00 0.00 0.00 80
20260905010435 84 23 2.0 4.0 0.00 0.00 0.00 80
20260905005930 84 342 0.0 9.0 0.00 0.00 0.00 81
20260905005427 84 39 3.0 7.0 0.00 0.00 0.00 80
20260905004927 84 331 4.0 6.0 0.00 0.00 0.00 80
20260905004421 84 113 1.0 3.0 0.00 0.00 0.00 80
20260905003917 84 314 3.0 6.0 0.00 0.00 0.00 81
20260905003413 84 350 2.0 6.0 0.00 0.00 0.00 81
20260905002908 84 352 2.0 4.0 0.00 0.00 0.00 81
20260905002407 84 338 0.0 2.0 0.00 0.00 0.00 80
20260905001857 84 0 1.0 4.0 0.00 0.00 0.00 80
20260905001357 84 11 2.0 7.0 0.00 0.00 0.00 80
20260905000852 84 225 1.0 6.0 0.00 0.00 0.00 80
20260905000348 85 29 2.0 4.0 0.00 0.00 0.00 80
20260904235843 84 48 0.0 3.0 0.00 0.00 0.00 80
20260904235338 84 66 3.0 6.0 0.00 0.00 0.00 80
20260904234832 85 87 3.0 8.0 0.00 0.00 0.00 80
20260904234327 85 336 2.0 3.0 0.00 0.00 0.00 80
20260904233823 85 331 2.0 2.0 0.00 0.00 0.00 80
20260904233318 85 65 3.0 7.0 0.00 0.00 0.00 80
20260904232814 85 322 1.0 6.0 0.00 0.00 0.00 80
20260904232310 85 26 1.0 6.0 0.00 0.00 0.00 80
20260904231806 85 7 1.0 4.0 0.00 0.00 0.00 80
20260904231301 85 105 3.0 4.0 0.00 0.00 0.00 80
20260904230756 85 11 4.0 6.0 0.00 0.00 0.00 80
20260904230249 85 351 2.0 6.0 0.00 0.00 0.00 80
20260904225744 85 73 6.0 9.0 0.00 0.00 0.00 80
20260904225238 85 354 3.0 8.0 0.00 0.00 0.00 80
20260904224737 85 64 5.0 7.0 0.00 0.00 0.00 80
20260904224233 85 23 4.0 6.0 0.00 0.00 0.00 79
20260904223732 85 359 5.0 8.0 0.00 0.00 0.00 79
20260904223227 86 113 3.0 6.0 0.00 0.00 0.00 78
20260904222723 86 92 4.0 7.0 0.00 0.00 0.00 78
20260904222218 86 359 3.0 8.0 0.00 0.00 0.00 77
20260904221718 86 1 0.0 7.0 0.00 0.00 0.00 77
20260904221213 86 36 2.0 8.0 0.00 0.00 0.00 76
20260904220713 87 92 4.0 8.0 0.00 0.00 0.00 75
20260904220208 87 43 1.0 2.0 0.00 0.00 0.00 73
20260904215708 87 25 4.0 6.0 0.00 0.00 0.00 73
20260904215204 87 341 3.0 7.0 0.00 0.00 0.00 72
20260904214659 87 8 2.0 8.0 0.00 0.00 0.00 72
20260904214154 87 311 2.0 4.0 0.00 0.00 0.00 72
20260904213652 88 349 2.0 7.0 0.00 0.00 0.00 71
20260904213149 88 339 1.0 10.0 0.00 0.00 0.00 71
20260904212643 89 346 1.0 6.0 0.00 0.00 0.00 69
20260904212138 89 37 4.0 10.0 0.00 0.00 0.00 69
20260904211632 89 15 2.0 6.0 0.00 0.00 0.00 69
20260904211127 89 50 5.0 8.0 0.00 0.00 0.00 68
20260904210621 89 24 4.0 11.0 0.00 0.00 0.00 68
20260904210117 90 93 2.0 4.0 0.00 0.00 0.00 67
20260904205612 90 53 1.0 6.0 0.00 0.00 0.00 66
20260904205109 90 347 2.0 6.0 0.00 0.00 0.00 66
20260904204604 89 86 1.0 7.0 0.00 0.00 0.00 65
20260904204100 89 355 7.0 9.0 0.00 0.00 0.00 65
20260904203556 90 73 4.0 7.0 0.00 0.00 0.00 66
20260904203052 91 330 2.0 4.0 0.00 0.00 0.00 64
20260904202548 89 67 2.0 8.0 0.00 0.00 0.00 65
20260904202044 89 88 4.0 7.0 0.00 0.00 0.00 66
20260904201539 89 357 2.0 7.0 0.00 0.00 0.00 64
20260904201034 90 18 3.0 16.0 0.00 0.00 0.00 65
20260904200533 91 49 6.0 10.0 0.00 0.00 0.00 65
20260904200028 91 305 1.0 4.0 0.00 0.00 0.00 65
20260904195527 92 358 1.0 8.0 0.00 0.00 0.00 65
20260904195026 91 238 1.0 4.0 0.00 0.00 0.00 64
20260904194521 92 80 2.0 7.0 0.00 0.00 0.00 64
20260904194016 92 74 2.0 7.0 0.00 0.00 0.00 63
20260904193516 92 184 2.0 6.0 0.00 0.00 0.00 64
20260904193012 91 70 2.0 7.0 0.00 0.00 0.00 63
20260904192511 91 104 5.0 7.0 0.00 0.00 0.00 63
20260904192008 92 51 1.0 9.0 0.00 0.00 0.00 65
20260904191504 92 89 5.0 8.0 0.00 0.00 0.00 64
20260904191000 91 358 2.0 6.0 0.00 0.00 0.00 65
20260904190455 92 325 4.0 9.0 0.00 0.00 0.00 65
20260904185951 91 336 3.0 8.0 0.00 0.00 0.00 65
20260904185447 91 42 2.0 6.0 0.00 0.00 0.00 65
20260904184942 92 28 2.0 8.0 0.00 0.00 0.00 65
20260904184436 91 25 4.0 7.0 0.00 0.00 0.00 66
20260904183932 91 0 2.0 7.0 0.00 0.00 0.00 66
20260904183427 92 352 3.0 6.0 0.00 0.00 0.00 65
20260904182922 92 249 1.0 10.0 0.00 0.00 0.00 65
20260904182418 91 336 2.0 4.0 0.00 0.00 0.00 65
20260904181913 93 276 4.0 8.0 0.00 0.00 0.00 62
20260904181408 93 30 2.0 6.0 0.00 0.00 0.00 62
20260904180902 92 310 2.0 4.0 0.00 0.00 0.00 63
20260904180352 92 2 3.0 4.0 0.00 0.00 0.00 63
20260904175851 92 347 1.0 6.0 0.00 0.00 0.00 64
20260904175350 92 294 1.0 6.0 0.00 0.00 0.00 64
20260904174844 92 87 1.0 7.0 0.00 0.00 0.00 64
20260904174341 92 57 2.0 8.0 0.00 0.00 0.00 63
20260904173837 92 103 3.0 6.0 0.00 0.00 0.00 62
20260904173331 92 30 2.0 7.0 0.00 0.00 0.00 63
20260904172827 92 11 3.0 4.0 0.00 0.00 0.00 62
20260904172326 92 259 3.0 9.0 0.00 0.00 0.00 62
20260904171821 92 335 0.0 4.0 0.00 0.00 0.00 65
20260904171317 93 258 4.0 6.0 0.00 0.00 0.00 62
20260904170813 92 20 1.0 10.0 0.00 0.00 0.00 62
20260904170308 92 329 5.0 8.0 0.00 0.00 0.00 62
20260904165808 92 226 5.0 8.0 0.00 0.00 0.00 61
20260904165305 92 115 4.0 6.0 0.00 0.00 0.00 61
20260904164802 92 319 2.0 4.0 0.00 0.00 0.00 62
20260904164257 91 264 1.0 6.0 0.00 0.00 0.00 63
20260904163753 92 85 1.0 6.0 0.00 0.00 0.00 66
20260904163248 90 23 2.0 4.0 0.00 0.00 0.00 65
20260904162747 89 125 2.0 4.0 0.00 0.00 0.00 71
20260904162243 90 338 2.0 8.0 0.00 0.00 0.00 69
20260904161738 89 295 1.0 3.0 0.00 0.00 0.00 69
20260904161233 89 76 2.0 8.0 0.00 0.00 0.00 69
20260904160728 90 179 4.0 6.0 0.00 0.00 0.00 68
20260904160224 89 271 4.0 8.0 0.00 0.00 0.00 69
20260904155724 90 344 4.0 8.0 0.00 0.00 0.00 69
20260904155223 90 136 3.0 8.0 0.00 0.00 0.00 69
20260904154721 89 226 2.0 7.0 0.00 0.00 0.00 69
20260904154216 89 142 3.0 7.0 0.00 0.00 0.00 70
20260904153711 90 29 4.0 6.0 0.00 0.00 0.00 69
20260904153207 89 200 3.0 6.0 0.00 0.00 0.00 69
20260904152703 89 312 5.0 7.0 0.00 0.00 0.00 70
20260904152158 89 173 4.0 9.0 0.00 0.00 0.00 70
20260904151653 89 122 2.0 7.0 0.00 0.00 0.00 71
20260904151152 89 215 3.0 7.0 0.00 0.00 0.00 70
20260904150648 89 199 3.0 7.0 0.00 0.00 0.00 71
20260904150149 89 118 4.0 6.0 0.00 0.00 0.00 71
20260904145647 89 250 2.0 8.0 0.00 0.00 0.00 70
20260904145142 91 155 4.0 7.0 0.00 0.00 0.00 67
20260904144638 91 67 4.0 7.0 0.00 0.00 0.00 63
20260904144133 89 354 3.0 4.0 0.00 0.00 0.00 66
20260904143629 89 271 2.0 9.0 0.00 0.00 0.00 67
20260904143125 89 125 3.0 6.0 0.00 0.00 0.00 67
20260904142622 89 74 2.0 6.0 0.00 0.00 0.00 68
20260904142117 89 108 3.0 7.0 0.00 0.00 0.00 68
20260904141612 89 57 4.0 6.0 0.00 0.00 0.00 68